Regional Weather Roundup
Issued by NWS

Home | Current Version | Previous Version | Text Only | Print | Product List | Glossary On
Versions: 1 2 3 4 5 6 7 8 9 10 11 12 13 14 15 16 17 18 19 20 21 22 23 24 25 26 27
000
ASUS43 KDMX 251707
RWRIA

WEATHER ROUNDUP FOR IOWA
NATIONAL WEATHER SERVICE DES MOINES IA
1200 PM CDT SAT OCT 25 2014

NOTE: "FAIR" INDICATES FEW OR NO CLOUDS BELOW 12,000 FEET WITH NO
SIGNIFICANT WEATHER AND/OR OBSTRUCTIONS TO VISIBILITY.

* - THESE STATIONS ARE NOT NWS STATIONS...THUS NOT UNDER NWS
QUALITY CONTROL.  THEY ALSO DO NOT REPORT WEATHER SUCH
AS PRECIPITATION OR FOG.

IAZ001>003-012>014-020>022-031>034-043>046-251800-
   NORTHWEST IOWA

CITY           SKY/WX    TMP DP  RH WIND       PRES   REMARKS
CARROLL *      SUNNY     66  39  37 NE10      30.12F
CHEROKEE *     SUNNY     63  39  42 NE6       30.14S
DENISON *      SUNNY     64  37  36 NE10      30.10F
LE MARS *      SUNNY     63  39  42 NE6       30.15F
ORANGE CITY *  SUNNY     64  30  27 NE7       30.15R
SHELDON *      SUNNY     64  36  34 N10       30.13S
SIOUX CITY     SUNNY     66  39  37 NE12      30.14S
SPENCER        SUNNY     64  35  34 N12       30.14R
STORM LAKE *   SUNNY     63  36  36 VRB6      30.15S
$$

IAZ055>058-069>071-079>083-090>094-251800-
   SOUTHWEST IOWA

CITY           SKY/WX    TMP DP  RH WIND       PRES   REMARKS
AUDUBON *      SUNNY     66  30  26 NE9       30.13S
CLARINDA *     SUNNY     70  45  40 NE9       30.11F
COUNCIL BLFS * SUNNY     68  43  40 NE9       30.11S
CRESTON *      SUNNY     68  37  32 NE12G17   30.11S
HARLAN  *      SUNNY     68  37  32 E8G15     30.15S
LAMONI         SUNNY     68  46  45 NE9       30.10S
RED OAK *      SUNNY     70  45  40 NE9       30.11S
SHENANDOAH *   SUNNY     70  45  40 E9        30.11S
$$

IAZ047>049-059>061-072>074-084-251800-
   CENTRAL IOWA

CITY           SKY/WX    TMP DP  RH WIND       PRES   REMARKS
AMES           SUNNY     65  41  41 NE12      30.11R
ANKENY *       SUNNY     66  43  42 NE8       30.11R
CHARITON *     SUNNY     66  45  45 N8        30.09F
DES MOINES     PTSUNNY   68  42  38 N7        30.10S
GRINNELL*      SUNNY     66  39  37 N7        30.10R
KNOXVILLE *    SUNNY     64  43  45 N7        30.08S
MARSHALLTOWN   SUNNY     65  41  41 N9        30.09S
PELLA *        SUNNY     68  41  37 NE6       30.10S
PERRY *          N/A     66  39  37 N8        30.12R
$$

IAZ004>006-015-016-023>025-035-036-251800-
   NORTH CENTRAL IOWA

CITY           SKY/WX    TMP DP  RH WIND       PRES   REMARKS
ALGONA *       SUNNY     63  36  36 N10G17    30.13R
CLARION *      SUNNY     63  37  39 N14       30.11S
ESTHERVILLE    SUNNY     63  33  32 N14G21    30.13S
FORT DODGE *   SUNNY     64  37  36 N8        30.13S
MASON CITY     SUNNY     62  36  37 NW18      30.11S
FOREST CITY *  SUNNY     61  37  41 NW14      30.11S
IOWA FALLS *     N/A     64  34  32 N12       30.11S
$$

IAZ007>011-017>019-026>030-037>042-050>054-066-251800-
   NORTHEAST IOWA

CITY           SKY/WX    TMP DP  RH WIND       PRES   REMARKS
CEDAR RAPIDS   SUNNY     65  41  41 N15       30.07R
CHARLES CITY * SUNNY     63  37  39 N14G22    30.09R
CLINTON *      SUNNY     68  37  32 NW13G18   30.06R
DECORAH *      SUNNY     63  34  34 NW17G24   30.05S
DUBUQUE        SUNNY     63  37  38 N15       30.04R
MONTICELLO *   SUNNY     64  41  42 NW12      30.05S
OELWEIN *      SUNNY     63  39  42 NW15      30.08R
WATERLOO       SUNNY     63  42  46 NW12      30.08F
$$

IAZ064-065-067-068-078-251800-
   EAST CENTRAL IOWA

CITY           SKY/WX    TMP DP  RH WIND       PRES   REMARKS
DAVENPORT      SUNNY     68  36  30 N16       30.05R
IOWA CITY      SUNNY     66  41  40 N12       30.08R
MT. PLEASANT * SUNNY     68  43  40 N12       30.07S
MUSCATINE *    SUNNY     68  43  40 N10       30.06S
QUAD CITIES    SUNNY     69  43  38 N12G17    30.04R
$$

IAZ062-063-075>077-085>089-095>099-251800-
   SOUTHEAST IOWA

CITY           SKY/WX    TMP DP  RH WIND       PRES   REMARKS
BURLINGTON     SUNNY     70  46  42 N9        30.05S
FAIRFIELD *    SUNNY     68  43  40 N10       30.08S
FORT MADISON * SUNNY     72  48  43 N6        30.06S
KEOKUK *       SUNNY     70  52  52 N6        30.05S
OSKALOOSA *      N/A     68  41  37 N7        30.08F
CENTERVILLE *  SUNNY     68  46  45 N5        30.10S
OTTUMWA        SUNNY     69  46  43 N7        30.07F
WASHINGTON *   SUNNY     68  43  40 N9        30.07S
$$

ABBREVIATIONS USED IN REMARKS
   TC - TEMPERATURES IN CELSIUS
  WCI - WIND CHILL INDEX
   HX - HEAT INDEX
  VSB - VISIBILITY
$$




USA.gov is the U.S. government's official web portal to all federal, state and local government web resources and services.